This demonstration page uses our WeatherBlox Daily Observations layout. Learn more.

Left ArrowRight Arrow

Hourly Observations for March 29, 2020

Temp ( °F °C ) Dew Point ( °F °C ) Humidity (%) Winds ( mph kmh ) Pressure ( in mb ) Visibility ( mi km ) Precip ( " mm )
12:15 am 00:15 Cloudy 63 17 63 17 100 100 S 13 20 29.66 1004 10 16 N/A
12:36 am 00:36 Cloudy 63 17 63 17 100 100 S 16 26 29.65 1004 10 16 N/A
12:56 am 00:56 Mostly Cloudy 63 17 63 17 100 100 S 12 19 29.65 1004 10 16 N/A
1:15 am 01:15 Mostly Cloudy 64 18 64 18 100 100 S 10 17 29.63 1004 10 16 N/A
1:35 am 01:35 Mostly Cloudy 64 18 64 18 100 100 S 14 22 29.62 1003 10 16 N/A
1:55 am 01:55 Partly Cloudy 63 17 63 17 100 100 S 13 20 29.62 1003 10 16 N/A
2:15 am 02:15 Mostly Cloudy 63 17 63 17 100 100 S 16 26 29.62 1003 10 16 N/A
2:35 am 02:35 Cloudy 63 17 63 17 100 100 S 14 22 29.61 1003 10 16 N/A
2:55 am 02:55 Cloudy 63 17 63 17 100 100 S 12 19 29.60 1002 10 16 N/A
3:16 am 03:16 Cloudy 63 17 63 17 100 100 S 12 19 29.59 1002 10 16 N/A
3:36 am 03:36 Cloudy 63 17 63 17 100 100 SSW 12 19 29.59 1002 10 16 N/A
3:56 am 03:56 Cloudy 63 17 63 17 100 100 SW 10 17 29.59 1002 10 16 N/A
4:15 am 04:15 Partly Cloudy 63 17 63 17 100 100 SSW 9 15 29.58 1002 10 16 N/A
4:36 am 04:36 Partly Cloudy 63 17 63 17 100 100 SW 16 26 29.57 1001 10 16 N/A
4:55 am 04:55 Partly Cloudy 63 17 63 17 100 100 SW 10 17 29.58 1002 10 16 N/A
5:15 am 05:15 Mostly Cloudy 63 17 63 17 100 100 SW 14 22 29.58 1002 10 16 N/A
5:36 am 05:36 Partly Cloudy 63 17 59 15 88 88 WSW 13 20 29.59 1002 10 16 N/A
5:55 am 05:55 Mostly Cloudy 61 16 59 15 94 94 SW 9 15 29.59 1002 10 16 N/A
6:15 am 06:15 Mostly Cloudy 61 16 61 16 100 100 SW 10 17 29.60 1002 10 16 N/A
6:36 am 06:36 Partly Cloudy 61 16 55 13 83 83 SW 21 33 29.61 1003 10 16 N/A
6:55 am 06:55 Clear 61 16 55 13 83 83 SW 12 19 29.62 1003 10 16 N/A
7:16 am 07:16 Mostly Cloudy 59 15 55 13 88 88 SW 13 20 29.63 1004 10 16 N/A
7:35 am 07:35 Mostly Cloudy 59 15 52 11 77 77 SW 16 26 29.63 1004 10 16 N/A
7:55 am 07:55 Partly Cloudy 59 15 50 10 72 72 WSW 15 24 29.63 1004 10 16 N/A
8:16 am 08:16 Cloudy 59 15 50 10 72 72 WSW 16 26 29.64 1004 10 16 N/A
8:35 am 08:35 Cloudy 57 14 50 10 77 77 WSW 16 26 29.66 1004 10 16 N/A
8:55 am 08:55 Cloudy 57 14 48 9 72 72 WSW 20 31 29.67 1005 10 16 N/A
9:15 am 09:15 Cloudy 55 13 46 8 72 72 WSW 29 46 29.68 1005 10 16 N/A
9:35 am 09:35 Cloudy 55 13 46 8 72 72 WSW 28 44 29.69 1005 10 16 N/A
9:55 am 09:55 Cloudy 55 13 45 7 67 67 WSW 29 46 29.70 1006 10 16 N/A
10:15 am 10:15 Cloudy 55 13 46 8 72 72 WSW 28 44 29.71 1006 10 16 N/A
10:35 am 10:35 Cloudy 54 12 45 7 72 72 W 28 44 29.73 1007 10 16 N/A
10:55 am 10:55 Cloudy 52 11 43 6 72 72 WSW 33 54 29.76 1008 10 16 N/A

Powered by AerisWeather